Home   Weather   Sankt Augustin   Past weeks

Flag for Germany Past Weather in Sankt Augustin, North Rhine-Westphalia, Germany — Yesterday and Last 2 Weeks

Now
55 °F

Passing clouds.


Feels Like: 55 °F
Forecast: 58 / 75 °F
Wind: 3 mph from Southeast

Location: Koeln / Bonn

Current Time: Sep 28, 2016 at 5:36:30 AM

Latest Report: Sep 28, 2016 at 4:50 AM


Visibility: N/A

Pressure: 30.30 "Hg

Humidity: 77%

Dew Point: 48 °F

Location of Sankt AugustinLocation

Past Weather in Sankt Augustin — Graph

°F

Sankt Augustin Temperature Yesterday

Maximum temperature yesterday: 73 °F (at 3:50 PM)
Minimum temperature yesterday: 46 °F (at 6:50 AM)
Average temperature yesterday: 60 °F

High & Low Weather Summary for the Past Weeks

 TemperatureHumidityPressure
High90 °F (Sep 13, 2:50 PM)100% (Sep 17, 2:20 AM)30.33 "Hg (Sep 17, 2:20 AM)
Low43 °F (Sep 22, 2:50 AM)29% (Sep 14, 4:20 PM)29.80 "Hg (Sep 15, 12:50 PM)
Average63 °F71%30.07 "Hg
* Reported Sep 13 4:20 AM — Sep 28 4:20 AM, Sankt Augustin, Weather by CustomWeather, © 2016

Note: Actual official high and low records may vary slightly from our data, if they occured in-between our weather recording intervals... More about our weather records

Advertising

Sankt Augustin Weather History for the Previous 24 Hours

Scroll right to see more
 ConditionsComfort  
Time TempWeatherWind HumidityBarometerVisibility
4:20 AM
Wed, Sep 28
55 °FPassing clouds.5 mph77%30.30 "HgN/A
3:50 AM55 °FPassing clouds.3 mph77%30.30 "HgN/A
3:20 AM55 °FClear.7 mph77%30.30 "Hg10 mi
2:50 AM55 °FPassing clouds.3 mph77%30.30 "HgN/A
2:20 AM54 °FClear.1 mph82%30.30 "Hg10 mi
1:50 AM55 °FClear.2 mph82%30.33 "Hg10 mi
1:20 AM55 °FClear.2 mph82%30.30 "Hg10 mi
12:50 AM57 °FClear.2 mph77%30.33 "Hg10 mi
12:20 AM57 °FClear.2 mph77%30.33 "Hg10 mi
11:50 PM
Tue, Sep 27
57 °FClear.2 mph77%30.33 "Hg10 mi
11:20 PM57 °FPassing clouds.3 mph82%30.33 "HgN/A
10:50 PM59 °FClear.3 mph77%30.33 "Hg10 mi
10:20 PM61 °FClear.9 mph72%30.30 "Hg10 mi
9:50 PM59 °FClear.2 mph77%30.30 "Hg10 mi
9:20 PM61 °FPassing clouds.5 mph72%30.30 "HgN/A
8:50 PM55 °FClear.1 mph82%30.30 "Hg10 mi
8:20 PM64 °FClear.2 mph64%30.30 "Hg10 mi
7:50 PM64 °FClear.5 mph64%30.30 "Hg10 mi
7:20 PM66 °FClear.6 mph60%30.30 "Hg10 mi
6:50 PM68 °FPassing clouds.3 mph56%30.30 "HgN/A
6:20 PM72 °FSunny.3 mph47%30.27 "Hg10 mi
5:50 PM72 °FPassing clouds.5 mph47%30.27 "HgN/A
5:20 PM73 °FPassing clouds.3 mph44%30.27 "HgN/A
4:50 PM72 °FPassing clouds.3 mph47%30.27 "HgN/A
4:20 PM73 °FPassing clouds.5 mph44%30.27 "HgN/A
3:50 PM73 °FPassing clouds.6 mph41%30.30 "HgN/A
3:20 PM72 °FPassing clouds.5 mph47%30.30 "HgN/A
2:50 PM72 °FPassing clouds.6 mph47%30.30 "HgN/A
2:20 PM72 °FPassing clouds.6 mph50%30.30 "HgN/A
1:50 PM70 °FPassing clouds.6 mph53%30.30 "HgN/A
1:20 PM68 °FPassing clouds.5 mph56%30.30 "HgN/A
12:50 PM66 °FPassing clouds.3 mph60%30.30 "HgN/A
12:20 PM66 °FSunny.3 mph60%30.33 "Hg10 mi
11:50 AM64 °FPassing clouds.3 mph64%30.30 "HgN/A
11:20 AM64 °FSunny.1 mph64%30.30 "Hg10 mi
10:50 AM61 °FSunny.2 mph72%30.30 "Hg10 mi
10:20 AM59 °FPassing clouds.2 mph77%30.30 "HgN/A
9:50 AM55 °FPassing clouds.3 mph82%30.30 "HgN/A
9:20 AM54 °FPassing clouds.5 mph88%30.30 "HgN/A
8:50 AM54 °FPassing clouds.2 mph88%30.30 "HgN/A
8:20 AM48 °FPassing clouds.1 mph94%30.30 "HgN/A
7:50 AM46 °FFog.1 mph100%30.27 "HgN/A
7:20 AM48 °FFog.2 mph100%30.27 "HgN/A
6:50 AM46 °FFog.5 mph100%30.27 "HgN/A
6:20 AM50 °FPassing clouds.1 mph94%30.27 "HgN/A
5:50 AM50 °FPassing clouds.2 mph94%30.27 "HgN/A
5:20 AM48 °FPassing clouds.3 mph94%30.27 "HgN/A
Weather by CustomWeather, © 2016

See weather overviewHow to use our weather pages